Find Starlink 36812

NORAD ID: 67968 Int'l Des: 2026-038 Owner: SPXS Country: US Constellation: starlink operational
LEOCIRCULARRETROGRADE

現在のビュー

3D地球を読み込み中...

About Starlink 36812

Starlink 36812 (NORAD 67968) is a starlink constellation satellite (v2 mini) launched Feb 25, 2026 by SPXS of US. It operates in LEO, CIRCULAR, RETROGRADE orbit with a mass of 575.00 kg.

Starlink 36812について

説明を読み込み中...

次回通過

Passes for default location (London). Set your location on the main map for personalized predictions.

高度履歴

Loading altitude history...

軌道要素

1 67968U 26038H 26194.60161468 .00005094 00000-0 15999-3 0 9993
2 67968 97.2829 203.9014 0001352 126.2512 233.8856 15.33446800 22535
Epoch: Jul 13, 2026 • Age: 12 hours

現在のステータス

高度 491.8 km
遠地点 / 近地点 N/A
速度 7.62 km/s
衛星直下点 -67.06°S, 110.18°W
打ち上げ日 Feb 25, 2026
運用期間 0.3 years
タイプ internet

技術仕様

分類 Payload
質量 575.00 kg
乾燥質量 530.00 kg
総質量 575.00 kg
長さ 0.30 m
直径 4.10 m
スパン 29.00 m
形状 Box + pan
製造者 SPXS
バスタイプ Starlink V2MO
フェーズステータス In Orbit
所有者/国 SPXS/US

Most Searched